TKJ4268 LTAC-LTFO

Flight info

Callsign TKJ4268
Flight time N/A
Altitude 39000
Route GOBIT UL614 JUPNE UT54 SIV UW706 TBN UN37 ZUBRE
Aircraft B738/M-SDE2E3FGHIRWXY/LB1

Departure

Time 2026-04-28 21:40
Airport Esenboğa International Airport (LTAC)

Arrival

Time N/A
Airport Rize–Artvin Airport (LTFO)
Time Latitude Longitude Altitude Speed Heading
2026-04-28 21:16 40.11557 32.99033 3112 ft 0 kts 138°
2026-04-28 21:34 40.11569 32.99017 3112 ft 4 kts 127°
2026-04-28 21:34 40.11582 32.98987 3112 ft 4 kts 101°
2026-04-28 21:34 40.11581 32.98954 3112 ft 4 kts 71°
2026-04-28 21:35 40.11569 32.98925 3112 ft 3 kts 46°
2026-04-28 21:35 40.11566 32.98921 3112 ft 0 kts 45°
2026-04-28 21:38 40.11567 32.98922 3112 ft 1 kts 45°
2026-04-28 21:38 40.11585 32.98943 3112 ft 7 kts 33°
2026-04-28 21:38 40.11641 32.98917 3112 ft 12 kts 310°
2026-04-28 21:39 40.11705 32.98802 3111 ft 19 kts 305°
2026-04-28 21:39 40.11790 32.98645 3112 ft 24 kts 306°
2026-04-28 21:39 40.11870 32.98507 3112 ft 16 kts 313°
2026-04-28 21:39 40.11932 32.98512 3112 ft 11 kts 35°
2026-04-28 21:40 40.12055 32.98631 3113 ft 50 kts 36°
2026-04-28 21:40 40.12540 32.99091 3118 ft 121 kts 36°
2026-04-28 21:40 40.13068 32.99583 3143 ft 157 kts 34°
2026-04-28 21:40 40.13957 33.00457 3809 ft 163 kts 38°
2026-04-28 21:41 40.14861 33.01409 4627 ft 170 kts 39°
2026-04-28 21:41 40.15786 33.02398 5454 ft 174 kts 39°
2026-04-28 21:41 40.16735 33.03418 6271 ft 179 kts 39°
2026-04-28 21:41 40.17740 33.04505 6841 ft 202 kts 39°
2026-04-28 21:42 40.18900 33.05761 7123 ft 227 kts 40°
2026-04-28 21:42 40.19899 33.07436 7585 ft 245 kts 63°
2026-04-28 21:42 40.20363 33.09681 7775 ft 275 kts 86°
2026-04-28 21:42 40.20039 33.12181 8394 ft 286 kts 118°
2026-04-28 21:43 40.18913 33.14337 9331 ft 289 kts 130°
2026-04-28 21:43 40.17641 33.16411 10171 ft 296 kts 131°
2026-04-28 21:43 40.16292 33.18569 10598 ft 320 kts 131°
2026-04-28 21:43 40.14838 33.20911 11037 ft 339 kts 130°
2026-04-28 21:44 40.13351 33.23339 11838 ft 344 kts 130°
2026-04-28 21:44 40.11858 33.25801 12644 ft 349 kts 129°
2026-04-28 21:44 40.10343 33.28308 13512 ft 353 kts 129°
2026-04-28 21:44 40.08815 33.30836 14335 ft 357 kts 129°
2026-04-28 21:45 40.07264 33.33400 15106 ft 362 kts 129°
2026-04-28 21:45 40.05714 33.35958 15825 ft 367 kts 129°
2026-04-28 21:45 40.04120 33.38588 16578 ft 371 kts 129°
2026-04-28 21:45 40.02506 33.41247 17336 ft 376 kts 129°
2026-04-28 21:46 40.00898 33.43961 18081 ft 380 kts 126°